When you browse on this site, cookies collect data to enhance your experience and personalize the content and advertising you see.
Visit our Privacy Policy to learn more. By continuing to use the site, you agree to this use of cookies and data.
  • Em Portugal
  • Lista de países
  • Para 7 dias
  • Temperatura da água
  • Mapas de satélite
  • Mapa do tempo
  • Widgets de tempo
  • user-avatar
    Iniciar Sessão

    Previsão horária em Killarney

    Hoje, 16 Julho, Terça-feira

    Tempo Temperatura Precipitação Vento Pressão Humidade
    00:00 +13°C° 0 mm 0 m/s 761 mmHg 96%
    01:00 +13°C° 0 mm 0 m/s 761 mmHg 96%
    02:00 +13°C° 0 mm 0 m/s 761 mmHg 96%
    03:00 +13°C° 0 mm 0 m/s 761 mmHg 96%
    04:00 +14°C° 0 mm 0 m/s 760 mmHg 96%
    05:00 +14°C° 0 mm 0 m/s 760 mmHg 95%
    06:00 +16°C° 0 mm 1 m/s 760 mmHg 88%
    07:00 +19°C° 0 mm 1 m/s 761 mmHg 81%
    08:00 +20°C° 0 mm 1 m/s 761 mmHg 74%
    09:00 +20°C° 0 mm 2 m/s 760 mmHg 69%
    10:00 +21°C° 0 mm 2 m/s 760 mmHg 64%
    11:00 +21°C° 0 mm 2 m/s 760 mmHg 59%
    12:00 +21°C° 0 mm 3 m/s 760 mmHg 59%
    13:00 +21°C° 0 mm 3 m/s 760 mmHg 60%
    14:00 +22°C° 0 mm 4 m/s 760 mmHg 60%
    15:00 +21°C° 0 mm 4 m/s 760 mmHg 64%
    16:00 +20°C° 0 mm 3 m/s 759 mmHg 67%
    17:00 +19°C° 0 mm 3 m/s 759 mmHg 71%
    18:00 +18°C° 0 mm 3 m/s 759 mmHg 77%
    19:00 +17°C° 0 mm 2 m/s 759 mmHg 83%
    20:00 +15°C° 0 mm 2 m/s 759 mmHg 90%
    21:00 +15°C° 0 mm 2 m/s 759 mmHg 92%
    22:00 +14°C° 0 mm 2 m/s 759 mmHg 93%
    23:00 +14°C° 0 mm 2 m/s 758 mmHg 95%

    Amanhã, 17 Julho, Quarta-feira

    Tempo Temperatura Precipitação Vento Pressão Humidade
    00:00 +14°C° 0 mm 2 m/s 758 mmHg 96%
    01:00 +14°C° 0 mm 2 m/s 757 mmHg 96%
    02:00 +14°C° 0 mm 2 m/s 757 mmHg 96%
    03:00 +14°C° 0 mm 2 m/s 756 mmHg 95%
    04:00 +15°C° 0 mm 2 m/s 756 mmHg 93%
    05:00 +15°C° 0 mm 2 m/s 755 mmHg 92%
    06:00 +16°C° 0.2 mm 3 m/s 755 mmHg 91%
    07:00 +17°C° 0.2 mm 3 m/s 755 mmHg 90%
    08:00 +17°C° 0.2 mm 4 m/s 755 mmHg 90%
    09:00 +17°C° 1 mm 4 m/s 754 mmHg 92%
    10:00 +17°C° 1 mm 3 m/s 754 mmHg 94%
    11:00 +17°C° 1 mm 3 m/s 754 mmHg 96%
    12:00 +18°C° 0.4 mm 4 m/s 754 mmHg 93%
    13:00 +19°C° 0.4 mm 4 m/s 754 mmHg 90%
    14:00 +20°C° 0.4 mm 4 m/s 754 mmHg 87%
    15:00 +19°C° 0.3 mm 4 m/s 754 mmHg 88%
    16:00 +18°C° 0.3 mm 4 m/s 754 mmHg 88%
    17:00 +18°C° 0.3 mm 3 m/s 753 mmHg 89%
    18:00 +17°C° 0.1 mm 3 m/s 754 mmHg 90%
    19:00 +16°C° 0.1 mm 2 m/s 754 mmHg 92%
    20:00 +15°C° 0.1 mm 2 m/s 755 mmHg 93%
    21:00 +14°C° 0 mm 2 m/s 755 mmHg 93%
    22:00 +14°C° 0 mm 2 m/s 755 mmHg 93%
    23:00 +13°C° 0 mm 2 m/s 755 mmHg 93%

    Depois de amanhã, 18 Julho, Quinta-feira

    Tempo Temperatura Precipitação Vento Pressão Humidade
    00:00 +13°C° 0 mm 2 m/s 755 mmHg 93%
    01:00 +12°C° 0 mm 2 m/s 755 mmHg 94%
    02:00 +12°C° 0 mm 2 m/s 755 mmHg 94%
    03:00 +12°C° 0 mm 2 m/s 755 mmHg 93%
    04:00 +13°C° 0 mm 2 m/s 755 mmHg 93%
    05:00 +13°C° 0 mm 2 m/s 754 mmHg 92%
    06:00 +13°C° 0.2 mm 3 m/s 755 mmHg 89%
    07:00 +14°C° 0.2 mm 4 m/s 755 mmHg 86%
    08:00 +15°C° 0.2 mm 4 m/s 755 mmHg 82%
    09:00 +16°C° 0.1 mm 5 m/s 755 mmHg 77%
    10:00 +16°C° 0.1 mm 5 m/s 755 mmHg 71%
    11:00 +17°C° 0.1 mm 6 m/s 755 mmHg 66%
    12:00 +17°C° 0.1 mm 6 m/s 755 mmHg 68%
    13:00 +17°C° 0.1 mm 5 m/s 755 mmHg 69%
    14:00 +17°C° 0.1 mm 5 m/s 755 mmHg 71%
    15:00 +16°C° 0.1 mm 5 m/s 755 mmHg 73%
    16:00 +17°C° 0.1 mm 4 m/s 755 mmHg 75%
    17:00 +17°C° 0.1 mm 4 m/s 755 mmHg 77%
    18:00 +16°C° 0 mm 3 m/s 755 mmHg 83%
    19:00 +14°C° 0 mm 2 m/s 756 mmHg 88%
    20:00 +13°C° 0 mm 2 m/s 756 mmHg 93%
    21:00 +13°C° 0 mm 1 m/s 756 mmHg 93%
    22:00 +13°C° 0 mm 1 m/s 756 mmHg 94%
    23:00 +12°C° 0 mm 1 m/s 756 mmHg 94%

    19 Julho, Sexta-feira

    Tempo Temperatura Precipitação Vento Pressão Humidade
    00:00 +12°C° 0 mm 1 m/s 756 mmHg 94%
    01:00 +12°C° 0 mm 1 m/s 755 mmHg 93%
    02:00 +12°C° 0 mm 1 m/s 755 mmHg 93%
    03:00 +13°C° 0 mm 1 m/s 755 mmHg 92%
    04:00 +13°C° 0 mm 1 m/s 755 mmHg 91%
    05:00 +14°C° 0 mm 1 m/s 754 mmHg 90%
    06:00 +15°C° 0 mm 1 m/s 754 mmHg 86%
    07:00 +16°C° 0 mm 1 m/s 754 mmHg 83%
    08:00 +18°C° 0 mm 1 m/s 754 mmHg 79%
    09:00 +18°C° 0.1 mm 1 m/s 754 mmHg 76%
    10:00 +19°C° 0.1 mm 1 m/s 754 mmHg 74%
    11:00 +20°C° 0.1 mm 1 m/s 753 mmHg 71%
    12:00 +20°C° 0.3 mm 1 m/s 753 mmHg 73%
    13:00 +20°C° 0.3 mm 1 m/s 753 mmHg 74%
    14:00 +20°C° 0.3 mm 1 m/s 753 mmHg 76%
    15:00 +19°C° 0.2 mm 1 m/s 753 mmHg 78%
    16:00 +19°C° 0.2 mm 1 m/s 753 mmHg 81%
    17:00 +18°C° 0.2 mm 1 m/s 753 mmHg 83%
    18:00 +18°C° 0 mm 1 m/s 753 mmHg 86%
    19:00 +16°C° 0 mm 1 m/s 753 mmHg 88%
    20:00 +14°C° 0 mm 0 m/s 753 mmHg 91%
    21:00 +13°C° 0 mm 0 m/s 753 mmHg 91%
    22:00 +13°C° 0 mm 0 m/s 753 mmHg 92%
    23:00 +13°C° 0 mm 0 m/s 753 mmHg 93%

    20 Julho, Sábado

    Tempo Temperatura Precipitação Vento Pressão Humidade
    00:00 +13°C° 0 mm 0 m/s 753 mmHg 93%
    01:00 +13°C° 0 mm 0 m/s 753 mmHg 93%
    02:00 +14°C° 0 mm 1 m/s 753 mmHg 94%
    03:00 +14°C° 0 mm 1 m/s 753 mmHg 93%
    04:00 +14°C° 0 mm 1 m/s 753 mmHg 93%
    05:00 +14°C° 0 mm 1 m/s 753 mmHg 93%
    06:00 +15°C° 0 mm 2 m/s 753 mmHg 90%
    07:00 +16°C° 0 mm 2 m/s 753 mmHg 87%
    08:00 +17°C° 0 mm 2 m/s 753 mmHg 84%
    09:00 +18°C° 0.2 mm 3 m/s 753 mmHg 83%
    10:00 +19°C° 0.2 mm 3 m/s 753 mmHg 82%
    11:00 +19°C° 0.2 mm 3 m/s 753 mmHg 81%
    12:00 +20°C° 0.3 mm 3 m/s 753 mmHg 81%
    13:00 +20°C° 0.3 mm 4 m/s 754 mmHg 81%
    14:00 +20°C° 0.3 mm 4 m/s 754 mmHg 80%
    15:00 +19°C° 0.3 mm 4 m/s 754 mmHg 81%
    16:00 +19°C° 0.3 mm 4 m/s 754 mmHg 83%
    17:00 +19°C° 0.3 mm 4 m/s 755 mmHg 84%
    18:00 +18°C° 0 mm 3 m/s 755 mmHg 87%
    19:00 +16°C° 0 mm 3 m/s 755 mmHg 91%
    20:00 +15°C° 0 mm 2 m/s 756 mmHg 95%
    21:00 +15°C° 0 mm 2 m/s 756 mmHg 96%
    22:00 +15°C° 0 mm 2 m/s 756 mmHg 96%
    23:00 +14°C° 0 mm 2 m/s 757 mmHg 97%

    21 Julho, Domingo

    Tempo Temperatura Precipitação Vento Pressão Humidade
    00:00 +14°C° 0 mm 2 m/s 756 mmHg 97%
    01:00 +14°C° 0 mm 2 m/s 756 mmHg 98%
    02:00 +14°C° 0 mm 2 m/s 756 mmHg 98%
    03:00 +14°C° 0 mm 2 m/s 756 mmHg 98%
    04:00 +15°C° 0 mm 2 m/s 757 mmHg 98%
    05:00 +15°C° 0 mm 2 m/s 757 mmHg 97%
    06:00 +17°C° 0 mm 2 m/s 757 mmHg 93%
    07:00 +18°C° 0 mm 3 m/s 757 mmHg 88%
    08:00 +20°C° 0 mm 3 m/s 757 mmHg 83%
    09:00 +21°C° 0 mm 4 m/s 757 mmHg 79%
    10:00 +21°C° 0 mm 5 m/s 757 mmHg 75%
    11:00 +22°C° 0 mm 6 m/s 757 mmHg 71%
    12:00 +22°C° 0.1 mm 6 m/s 756 mmHg 74%
    13:00 +22°C° 0.1 mm 6 m/s 756 mmHg 76%
    14:00 +21°C° 0.1 mm 6 m/s 756 mmHg 79%
    15:00 +20°C° 0.4 mm 5 m/s 755 mmHg 83%
    16:00 +20°C° 0.4 mm 4 m/s 755 mmHg 88%
    17:00 +19°C° 0.4 mm 4 m/s 754 mmHg 92%
    18:00 +18°C° 0.1 mm 3 m/s 754 mmHg 93%
    19:00 +18°C° 0.1 mm 3 m/s 754 mmHg 95%
    20:00 +18°C° 0.1 mm 2 m/s 754 mmHg 96%
    21:00 +17°C° 0 mm 2 m/s 754 mmHg 97%
    22:00 +17°C° 0 mm 2 m/s 754 mmHg 97%
    23:00 +16°C° 0 mm 2 m/s 754 mmHg 97%
    Mostrar mais